CW9825 Weather Reports


time (UTC)temp
C
wind
direction
speed
KPH
gust
KPH
rain 1hr
cm
rain 24hr
cm
rain mn
cm
humidity
%
barometer
mb
20260507094549 -3 165 1.6 4.8 0.00 0.00 0.00 77 1011.6
20260507094036 -3 165 1.6 4.8 0.00 0.00 0.00 77 1011.7
20260507093536 -3 167 1.6 8.0 0.00 0.00 0.00 77 1011.7
20260507093037 -3 167 3.2 8.0 0.00 0.00 0.00 77 1011.8
20260507092535 -3 169 3.2 6.4 0.00 0.00 0.00 77 1011.8
20260507092035 -2 170 1.6 4.8 0.00 0.00 0.00 76 1011.7
20260507091535 -2 170 1.6 6.4 0.00 0.00 0.00 77 1011.7
20260507091035 -2 171 3.2 6.4 0.00 0.00 0.00 77 1011.7
20260507090533 -3 175 1.6 6.4 0.00 0.00 0.00 77 1011.8
20260507090032 -3 177 1.6 6.4 0.00 0.00 0.00 76 1011.7
20260507085531 -3 182 1.6 4.8 0.00 0.00 0.00 76 1011.8
20260507085031 -3 182 0.0 4.8 0.00 0.00 0.00 76 1011.8
20260507084536 -3 182 1.6 4.8 0.00 0.00 0.00 76 1011.8
20260507084029 -3 183 1.6 4.8 0.00 0.00 0.00 75 1011.8
20260507083528 -2 184 1.6 4.8 0.00 0.00 0.00 75 1011.8
20260507083027 -2 184 0.0 4.8 0.00 0.00 0.00 75 1011.9
20260507082527 -2 184 0.0 4.8 0.00 0.00 0.00 74 1011.8
20260507082125 -2 185 1.6 4.8 0.00 0.00 0.00 74 1011.8
20260507081526 -2 187 0.0 4.8 0.00 0.00 0.00 74 1011.8
20260507081023 -2 187 0.0 4.8 0.00 0.00 0.00 74 1011.8
20260507080523 -2 188 0.0 4.8 0.00 0.00 0.00 73 1011.7
20260507080021 -2 188 0.0 0.0 0.00 0.00 0.00 73 1011.6
20260507075520 -2 189 0.0 0.0 0.00 0.00 0.00 73 1011.7
20260507075020 -2 189 0.0 0.0 0.00 0.00 0.00 73 1011.7
20260507074520 -2 189 0.0 0.0 0.00 0.00 0.00 73 1011.7
20260507074018 -2 189 0.0 0.0 0.00 0.00 0.00 73 1011.7
20260507073521 -2 189 0.0 0.0 0.00 0.00 0.00 72 1011.7
20260507073018 -2 189 0.0 3.2 0.00 0.00 0.00 72 1011.8
20260507072517 -2 188 0.0 3.2 0.00 0.00 0.00 72 1011.8
20260507072016 -2 188 0.0 4.8 0.00 0.00 0.00 71 1011.8
20260507071518 -2 188 0.0 4.8 0.00 0.00 0.00 71 1011.8
20260507071014 -2 189 0.0 4.8 0.00 0.00 0.00 71 1011.8
20260507070514 -1 190 0.0 0.0 0.00 0.00 0.00 71 1011.8
20260507070020 -1 190 0.0 0.0 0.00 0.00 0.00 71 1011.9
20260507065513 -1 190 0.0 1.6 0.00 0.00 0.00 71 1011.9
20260507065015 -1 190 0.0 3.2 0.00 0.00 0.00 70 1012.0
20260507064514 -1 190 1.6 3.2 0.00 0.00 0.00 69 1012.0
20260507064008 -1 190 0.0 4.8 0.00 0.00 0.00 68 1012.0
20260507063507 -1 190 1.6 4.8 0.00 0.00 0.00 67 1012.1
20260507063007 0 190 0.0 4.8 0.00 0.00 0.00 67 1012.1
20260507062504 0 190 1.6 4.8 0.00 0.00 0.00 67 1012.1
20260507062103 0 190 0.0 3.2 0.00 0.00 0.00 66 1012.2
20260507061502 0 190 0.0 3.2 0.00 0.00 0.00 66 1012.2
20260507061003 0 190 0.0 3.2 0.00 0.00 0.00 66 1012.2
20260507060601 0 190 0.0 6.4 0.00 0.00 0.00 66 1012.2
20260507060101 0 190 1.6 6.4 0.00 0.00 0.00 65 1012.2
20260507055601 0 190 1.6 4.8 0.00 0.00 0.00 64 1012.2
20260507055101 0 193 1.6 4.8 0.00 0.00 0.00 64 1012.1
20260507054556 1 194 1.6 4.8 0.00 0.00 0.00 63 1012.2
20260507054054 1 196 0.0 3.2 0.00 0.00 0.00 63 1012.2
20260507053553 1 196 0.0 6.4 0.00 0.00 0.00 63 1012.3
20260507053102 1 196 1.6 6.4 0.00 0.00 0.00 62 1012.4
20260507052551 1 187 0.0 4.8 0.00 0.00 0.00 62 1012.3
20260507052051 1 188 0.0 4.8 0.00 0.00 0.00 61 1012.3
20260507051550 1 188 0.0 4.8 0.00 0.00 0.00 61 1012.5
20260507051049 2 188 3.2 8.0 0.00 0.00 0.00 61 1012.5
20260507050548 2 188 1.6 9.7 0.00 0.00 0.00 61 1012.5
20260507050047 2 207 4.8 11.3 0.00 0.00 0.00 61 1012.5
20260507045547 2 194 4.8 11.3 0.00 0.00 0.00 61 1012.4
20260507045047 2 191 3.2 8.0 0.00 0.00 0.00 60 1012.5
20260507044558 2 199 4.8 9.7 0.00 0.00 0.00 60 1012.6
20260507044045 2 209 6.4 9.7 0.00 0.00 0.00 61 1012.7
20260507043544 2 202 3.2 9.7 0.00 0.00 0.00 61 1012.8
20260507043048 2 177 1.6 6.4 0.00 0.00 0.00 60 1012.7
20260507042545 2 177 1.6 6.4 0.00 0.00 0.00 60 1012.7
20260507042046 2 178 1.6 6.4 0.00 0.00 0.00 59 1012.7
20260507041547 2 182 3.2 6.4 0.00 0.00 0.00 59 1012.8
20260507041045 2 194 1.6 6.4 0.00 0.00 0.00 59 1012.9
20260507040542 2 195 1.6 6.4 0.00 0.00 0.00 58 1013.0
20260507040045 2 190 1.6 8.0 0.00 0.00 0.00 57 1013.1
20260507035541 3 188 3.2 8.0 0.00 0.00 0.00 57 1013.1
20260507035041 3 180 1.6 8.0 0.00 0.00 0.00 57 1013.2
20260507034544 3 175 3.2 8.0 0.00 0.00 0.00 57 1013.2
20260507034039 3 175 0.0 6.4 0.00 0.00 0.00 57 1013.3
20260507033539 3 171 1.6 8.0 0.00 0.00 0.00 57 1013.3
20260507033050 3 184 1.6 8.0 0.00 0.00 0.00 57 1013.3
20260507032539 2 179 1.6 9.7 0.00 0.00 0.00 57 1013.4
20260507032041 3 191 1.6 8.0 0.00 0.00 0.00 57 1013.4
20260507031553 3 190 0.0 8.0 0.00 0.00 0.00 56 1013.4
20260507031041 3 177 3.2 8.0 0.00 0.00 0.00 56 1013.5
20260507030538 3 192 1.6 4.8 0.00 0.00 0.00 56 1013.5
20260507030051 3 193 0.0 6.4 0.00 0.00 0.00 56 1013.5
20260507025536 3 194 1.6 6.4 0.00 0.00 0.00 56 1013.6
20260507025036 3 192 1.6 6.4 0.00 0.00 0.00 55 1013.6
20260507024555 3 193 1.6 6.4 0.00 0.00 0.00 55 1013.6
20260507024035 3 208 1.6 6.4 0.00 0.00 0.00 55 1013.7
20260507023535 4 215 1.6 4.8 0.00 0.00 0.00 54 1013.6
20260507023035 4 218 1.6 4.8 0.00 0.00 0.00 54 1013.6
20260507022535 4 219 0.0 4.8 0.00 0.00 0.00 54 1013.6
20260507022036 5 219 0.0 4.8 0.00 0.00 0.00 54 1013.6
20260507021537 5 221 0.0 4.8 0.00 0.00 0.00 54 1013.6
20260507021035 5 222 1.6 4.8 0.00 0.00 0.00 53 1013.7
20260507020536 5 223 1.6 4.8 0.00 0.00 0.00 52 1013.7
20260507020047 5 223 1.6 4.8 0.00 0.00 0.00 52 1013.6
20260507015535 5 223 0.0 4.8 0.00 0.00 0.00 52 1013.7
20260507015039 5 223 0.0 8.0 0.00 0.00 0.00 52 1013.7
20260507014543 5 223 3.2 8.0 0.00 0.00 0.00 51 1013.7
20260507014034 6 234 0.0 3.2 0.00 0.00 0.00 51 1013.7
20260507013537 6 234 0.0 4.8 0.00 0.00 0.00 50 1013.6
20260507013039 6 234 1.6 4.8 0.00 0.00 0.00 50 1013.6
20260507012534 6 235 0.0 3.2 0.00 0.00 0.00 50 1013.6
20260507012035 6 235 0.0 6.4 0.00 0.00 0.00 49 1013.7
20260507011537 6 234 1.6 6.4 0.00 0.00 0.00 49 1013.7
20260507011033 6 240 1.6 9.7 0.00 0.00 0.00 49 1013.6
20260507010533 6 237 3.2 9.7 0.00 0.00 0.00 49 1013.7
20260507010040 6 248 1.6 6.4 0.00 0.00 0.00 49 1013.7
20260507005532 6 257 1.6 9.7 0.00 0.00 0.00 49 1013.7
20260507005034 6 260 3.2 9.7 0.00 0.00 0.00 48 1013.8
20260507004533 6 250 1.6 8.0 0.00 0.00 0.00 48 1013.7
20260507004031 6 223 1.6 11.3 0.00 0.00 0.00 49 1013.8
20260507003531 6 254 3.2 12.9 0.00 0.00 0.00 49 1013.8
20260507003030 6 264 6.4 12.9 0.00 0.00 0.00 48 1013.9
20260507002529 7 273 4.8 12.9 0.00 0.00 0.00 48 1013.9
20260507002029 7 213 3.2 8.0 0.00 0.00 0.00 48 1014.0
20260507001534 6 228 3.2 8.0 0.00 0.00 0.00 48 1014.0
20260507001028 6 213 3.2 11.3 0.00 0.00 0.00 48 1014.1
20260507000527 6 268 3.2 12.9 0.00 0.00 0.00 48 1014.1
20260507000027 6 240 4.8 12.9 0.00 0.00 0.00 48 1014.2
20260506235527 7 254 0.0 12.9 0.00 0.00 0.00 48 1014.3
20260506235026 7 261 3.2 12.9 0.00 0.00 0.00 49 1014.3
20260506234526 7 240 4.8 12.9 0.00 0.00 0.00 49 1014.3
20260506234025 6 248 3.2 11.3 0.00 0.00 0.00 49 1014.3
20260506233524 6 300 3.2 12.9 0.00 0.00 0.00 49 1014.3
20260506233025 6 310 3.2 14.5 0.00 0.00 0.00 49 1014.3
20260506232524 6 270 6.4 16.1 0.00 0.00 0.00 49 1014.4
20260506232023 6 248 6.4 16.1 0.00 0.00 0.00 48 1014.5
20260506231523 7 234 3.2 14.5 0.00 0.00 0.00 49 1014.6
20260506231022 6 273 6.4 14.5 0.00 0.00 0.00 49 1014.6
20260506230522 6 300 1.6 12.9 0.00 0.00 0.00 49 1014.6
20260506230022 6 305 4.8 16.1 0.00 0.00 0.00 50 1014.6
20260506225521 6 98 3.2 16.1 0.00 0.00 0.00 50 1014.7
20260506225025 6 269 4.8 14.5 0.00 0.00 0.00 50 1014.7
20260506224521 6 252 6.4 16.1 0.00 0.00 0.00 50 1014.7
20260506224019 6 262 4.8 16.1 0.00 0.00 0.00 50 1014.7
20260506223518 6 263 6.4 14.5 0.00 0.00 0.00 50 1014.8
20260506223019 6 332 8.0 14.5 0.00 0.00 0.00 51 1014.8
20260506222518 6 295 6.4 17.7 0.00 0.00 0.00 50 1014.9
20260506222018 6 334 8.0 17.7 0.00 0.00 0.00 50 1014.8
20260506221517 6 297 6.4 16.1 0.00 0.00 0.00 51 1014.9
20260506221017 6 284 6.4 19.3 0.00 0.00 0.00 52 1014.8
20260506220517 6 292 11.3 19.3 0.00 0.00 0.00 52 1014.9
20260506220017 6 342 3.2 14.5 0.00 0.00 0.00 53 1014.9
20260506215516 6 333 4.8 14.5 0.00 0.00 0.00 51 1014.9
20260506215015 6 297 6.4 12.9 0.00 0.00 0.00 52 1015.0
20260506214515 6 272 0.0 12.9 0.00 0.00 0.00 52 1015.0
20260506214015 6 303 4.8 16.1 0.00 0.00 0.00 52 1015.0
20260506213517 6 248 6.4 16.1 0.00 0.00 0.00 52 1015.1
20260506213011 6 246 4.8 12.9 0.00 0.00 0.00 52 1015.2
20260506212511 6 267 8.0 12.9 0.00 0.00 0.00 52 1015.2
20260506212013 6 298 3.2 12.9 0.00 0.00 0.00 53 1015.3
20260506211516 6 269 4.8 20.9 0.00 0.00 0.00 52 1015.3
20260506211010 6 267 6.4 20.9 0.00 0.00 0.00 52 1015.4
20260506210509 6 322 8.0 14.5 0.00 0.00 0.00 52 1015.4
20260506210015 6 265 4.8 16.1 0.00 0.00 0.00 53 1015.4
20260506205508 6 279 6.4 17.7 0.00 0.00 0.00 53 1015.5
20260506205008 6 275 3.2 12.9 0.00 0.00 0.00 53 1015.5
20260506204509 6 273 6.4 14.5 0.00 0.00 0.00 53 1015.5
20260506204007 6 287 6.4 16.1 0.00 0.00 0.00 54 1015.5
20260506203508 5 275 4.8 17.7 0.00 0.00 0.00 53 1015.5
20260506203008 6 275 9.7 17.7 0.00 0.00 0.00 54 1015.6
20260506202508 6 261 4.8 17.7 0.00 0.00 0.00 53 1015.6
20260506202008 6 280 8.0 17.7 0.00 0.00 0.00 52 1015.7
20260506201509 6 286 3.2 12.9 0.00 0.00 0.00 52 1015.6
20260506201007 6 251 3.2 12.9 0.00 0.00 0.00 52 1015.7
20260506200507 6 255 4.8 19.3 0.00 0.00 0.00 53 1015.8
20260506200006 6 273 9.7 19.3 0.00 0.00 0.00 54 1015.7
20260506195508 6 284 4.8 14.5 0.00 0.00 0.00 53 1015.7
20260506195005 6 276 6.4 16.1 0.00 0.00 0.00 53 1015.7
20260506194506 6 281 8.0 17.7 0.00 0.00 0.00 53 1015.9
20260506194006 5 292 9.7 17.7 0.00 0.00 0.00 53 1016.0
20260506193505 5 277 3.2 19.3 0.00 0.00 0.00 54 1016.0
20260506193004 5 223 8.0 19.3 0.00 0.00 0.00 54 1016.1
20260506192504 5 274 8.0 16.1 0.00 0.00 0.00 54 1016.1
20260506192006 5 294 4.8 17.7 0.00 0.00 0.00 53 1016.1
20260506191504 5 273 8.0 17.7 0.00 0.00 0.00 53 1016.2
20260506191004 5 292 4.8 11.3 0.00 0.00 0.00 53 1016.1
20260506190503 5 302 4.8 14.5 0.00 0.00 0.00 55 1016.1
20260506190004 5 333 4.8 14.5 0.00 0.00 0.00 54 1016.2
20260506185502 5 282 6.4 14.5 0.00 0.00 0.00 54 1016.3
20260506185003 5 304 6.4 19.3 0.00 0.00 0.00 54 1016.3
20260506184503 5 286 9.7 19.3 0.00 0.00 0.00 53 1016.1
20260506184002 5 271 9.7 17.7 0.00 0.00 0.00 54 1016.2
20260506183503 5 265 6.4 16.1 0.00 0.00 0.00 53 1016.3
20260506183002 5 324 6.4 16.1 0.00 0.00 0.00 53 1016.2
20260506182501 5 355 8.0 17.7 0.00 0.00 0.00 53 1016.3
20260506182001 5 270 6.4 17.7 0.00 0.00 0.00 53 1016.4
20260506181502 5 248 6.4 17.7 0.00 0.00 0.00 53 1016.3
20260506181001 5 248 6.4 16.1 0.00 0.00 0.00 53 1016.3
20260506180501 5 260 6.4 16.1 0.00 0.00 0.00 53 1016.3
20260506180001 5 284 8.0 16.1 0.00 0.00 0.00 54 1016.4
20260506175501 5 281 1.6 17.7 0.00 0.00 0.00 53 1016.4
20260506175001 5 277 6.4 19.3 0.00 0.00 0.00 54 1016.5
20260506174501 5 323 8.0 19.3 0.00 0.00 0.00 54 1016.4
20260506174102 5 290 6.4 14.5 0.00 0.00 0.00 53 1016.5
20260506173600 5 268 4.8 14.5 0.00 0.00 0.00 54 1016.6
20260506173130 5 355 6.4 14.5 0.00 0.00 0.00 54 1016.6
20260506172600 5 299 4.8 14.5 0.00 0.00 0.00 54 1016.5
20260506172104 5 321 4.8 17.7 0.00 0.00 0.00 54 1016.6
20260506171620 5 273 9.7 17.7 0.00 0.00 0.00 54 1016.5
20260506171100 5 301 6.4 16.1 0.00 0.00 0.00 54 1016.7
20260506170559 5 338 3.2 19.3 0.00 0.00 0.00 54 1016.7
20260506170100 5 281 12.9 19.3 0.00 0.00 0.00 53 1016.7
20260506165559 5 279 6.4 19.3 0.00 0.00 0.00 53 1016.7
20260506165059 5 321 4.8 16.1 0.00 0.00 0.00 53 1016.8
20260506164607 5 304 4.8 16.1 0.00 0.00 0.00 53 1016.8
20260506164059 5 339 4.8 16.1 0.00 0.00 0.00 52 1016.8
20260506163558 6 298 3.2 16.1 0.00 0.00 0.00 52 1016.8
20260506163106 6 319 3.2 12.9 0.00 0.00 0.00 53 1016.9
20260506162555 5 336 4.8 17.7 0.00 0.00 0.00 55 1016.8
20260506162055 5 331 9.7 17.7 0.00 0.00 0.00 54 1016.9
20260506161629 5 312 4.8 19.3 0.00 0.00 0.00 54 1016.9
20260506161054 5 334 8.0 19.3 0.00 0.00 0.00 54 1017.0
20260506160553 5 355 8.0 20.9 0.00 0.00 0.00 54 1017.0
20260506160056 5 315 6.4 20.9 0.00 0.00 0.00 54 1017.0
20260506155551 5 277 6.4 20.9 0.00 0.00 0.00 55 1017.0
20260506155050 4 343 8.0 22.5 0.00 0.00 0.00 55 1017.1
20260506154552 4 269 6.4 22.5 0.00 0.00 0.00 56 1017.0
20260506154049 4 292 4.8 20.9 0.00 0.00 0.00 57 1017.0
20260506153546 3 267 4.8 19.3 0.00 0.00 0.00 57 1017.1
20260506153051 3 308 8.0 20.9 0.00 0.00 0.00 57 1017.1
20260506152547 3 246 11.3 20.9 0.00 0.00 0.00 57 1017.1
20260506152047 3 278 11.3 20.9 0.00 0.00 0.00 57 1017.2
20260506151549 3 5 8.0 22.5 0.00 0.00 0.00 57 1017.2
20260506151046 3 273 4.8 16.1 0.00 0.00 0.00 58 1017.2
20260506150548 3 283 4.8 20.9 0.00 0.00 0.00 57 1017.2
20260506150046 3 274 6.4 20.9 0.00 0.00 0.00 58 1017.2
20260506145546 3 268 9.7 16.1 0.00 0.00 0.00 58 1017.2
20260506145046 3 273 4.8 27.4 0.00 0.00 0.00 57 1017.2
20260506144546 3 285 9.7 27.4 0.00 0.00 0.00 57 1017.2
20260506144045 3 269 8.0 20.9 0.00 0.00 0.00 58 1017.2
20260506143545 3 269 8.0 24.1 0.00 0.00 0.00 57 1017.2
20260506143045 4 266 11.3 24.1 0.00 0.00 0.00 57 1017.2
20260506142544 4 294 6.4 17.7 0.00 0.00 0.00 58 1017.2
20260506142042 3 274 11.3 19.3 0.00 0.00 0.00 61 1017.2
20260506141541 3 321 8.0 19.3 0.00 0.00 0.00 60 1017.2
20260506141040 3 321 6.4 19.3 0.00 0.00 0.00 62 1017.2
20260506140542 3 346 6.4 19.3 0.00 0.00 0.00 61 1017.3
20260506140039 3 294 4.8 16.1 0.00 0.00 0.00 62 1017.3
20260506135537 3 335 8.0 19.3 0.00 0.00 0.00 62 1017.3
20260506135036 3 323 11.3 19.3 0.00 0.00 0.00 63 1017.3
20260506134535 2 280 4.8 14.5 0.00 0.00 0.00 63 1017.3
20260506134033 2 272 4.8 14.5 0.00 0.00 0.00 63 1017.3
20260506133532 2 288 4.8 14.5 0.00 0.00 0.00 63 1017.3
20260506133031 2 333 4.8 12.9 0.00 0.00 0.00 65 1017.3
20260506132533 2 310 3.2 12.9 0.00 0.00 0.00 65 1017.3
20260506132034 2 273 3.2 11.3 0.00 0.00 0.00 65 1017.3
20260506131537 2 289 3.2 12.9 0.00 0.00 0.00 65 1017.2
20260506131029 2 270 3.2 12.9 0.00 0.00 0.00 65 1017.2
20260506130527 2 297 4.8 12.9 0.00 0.00 0.00 65 1017.2
20260506130025 2 266 3.2 12.9 0.00 0.00 0.00 65 1017.2
20260506125530 2 330 4.8 16.1 0.00 0.00 0.00 65 1017.2
20260506125026 2 327 1.6 16.1 0.00 0.00 0.00 65 1017.2
20260506124523 2 306 4.8 16.1 0.00 0.00 0.00 66 1017.1
20260506124022 1 301 3.2 8.0 0.00 0.00 0.00 66 1017.1
20260506123520 1 309 3.2 6.4 0.00 0.00 0.00 66 1017.1
20260506123019 1 309 1.6 6.4 0.00 0.00 0.00 66 1017.1
20260506122519 1 317 1.6 6.4 0.00 0.00 0.00 66 1017.1
20260506122018 1 302 3.2 12.9 0.00 0.00 0.00 66 1017.0
20260506121517 1 296 1.6 8.0 0.00 0.00 0.00 66 1016.9
20260506121016 1 300 3.2 6.4 0.00 0.00 0.00 66 1016.9
20260506120515 1 296 1.6 6.4 0.00 0.00 0.00 65 1016.8
20260506120018 1 288 1.6 6.4 0.00 0.00 0.00 65 1016.7
20260506115518 1 284 1.6 6.4 0.00 0.00 0.00 65 1016.7
20260506115013 1 296 1.6 6.4 0.00 0.00 0.00 65 1016.6
20260506114513 1 308 1.6 4.8 0.00 0.00 0.00 65 1016.5
20260506114012 1 310 0.0 4.8 0.00 0.00 0.00 64 1016.6
20260506113511 1 310 1.6 6.4 0.00 0.00 0.00 64 1016.6
20260506113010 1 311 1.6 8.0 0.00 0.00 0.00 64 1016.6
20260506112510 1 315 3.2 8.0 0.00 0.00 0.00 63 1016.5
20260506112009 1 329 3.2 9.7 0.00 0.00 0.00 63 1016.4
20260506111509 1 327 3.2 9.7 0.00 0.00 0.00 63 1016.5
20260506111009 1 338 3.2 12.9 0.00 0.00 0.00 64 1016.4
20260506110510 1 327 4.8 14.5 0.00 0.00 0.00 64 1016.3
20260506110008 1 325 8.0 14.5 0.00 0.00 0.00 64 1016.3
20260506105507 1 340 8.0 16.1 0.00 0.00 0.00 64 1016.3
20260506105009 1 330 9.7 16.1 0.00 0.00 0.00 64 1016.2
20260506104506 1 333 6.4 19.3 0.00 0.00 0.00 65 1016.2
20260506104005 1 338 8.0 19.3 0.00 0.00 0.00 65 1016.2
20260506103505 1 320 4.8 12.9 0.00 0.00 0.00 66 1016.2
20260506103004 1 334 4.8 12.9 0.00 0.00 0.00 66 1016.2
20260506102503 1 304 1.6 12.9 0.00 0.00 0.00 66 1016.2
20260506102002 1 292 4.8 9.7 0.00 0.00 0.00 66 1016.2
20260506101506 1 329 4.8 9.7 0.00 0.00 0.00 66 1016.2
20260506101002 1 37 3.2 11.3 0.00 0.00 0.00 66 1016.1
20260506100502 1 318 3.2 17.7 0.00 0.00 0.00 66 1016.2
20260506100001 1 355 8.0 17.7 0.00 0.00 0.00 65 1016.1
20260506095603 1 320 8.0 17.7 0.00 0.00 0.00 65 1016.2
20260506095103 1 327 8.0 16.1 0.00 0.00 0.00 65 1016.2